Tracking 28790 objects as of 19-Apr-2024
HD Live streaming from Space Station
objects crossing your sky now

COSMOS 1867 COOLANT

Track COSMOS 1867 COOLANT now!
10-day predictions


NORAD ID: 43326
Int'l Code: 1987-060AT
Perigee: 774.3 km
Apogee: 804.7 km
Inclination: 65.0 °
Period: 100.5 minutes
Semi major axis: 7160 km
RCS: Unknown
Launch date: July 10, 1987
Source: Commonwealth of Independent States (former USSR) (CIS)
Launch site: TYURATAM MISSILE AND SPACE COMPLEX (TTMTR)

Note: This is SATELLITE DEBRIS
Your satellite tracking list
Your tracking list is empty




NASA's NSSDC Master Catalog

Two Line Element Set (TLE):
1 43326U 87060AT  24107.60535187  .00001440  00000-0  56246-3 0  9993
2 43326  65.0105  75.8744 0021181 275.7248  84.1422 14.32811457343760
Source of the keplerian elements: AFSPC